DLH1487 EDDH-LGIR

Flight info

Callsign DLH1487
Flight time N/A
Altitude 35000
Route AMLUH2C AMLUH M852 DENIX DCT ZUCKA DCT ALOSO DCT ARMUT DCT LULAR DCT DEXIT DCT PODET DCT DIMIS UL604 PLH/N0419F230 M978 OTREX
Aircraft A320/M-SDE3FGHIRWY/LB1

Departure

Time 2026-05-07 14:50
Airport Hamburg Helmut Schmidt Airport (EDDH)

Arrival

Time N/A
Airport Heraklion International Nikos Kazantzakis Airport (LGIR)
Time Latitude Longitude Altitude Speed Heading
2026-05-07 14:07 53.63418 10.00345 46 ft 0 kts 99°
2026-05-07 14:40 53.63420 10.00329 46 ft 4 kts 96°
2026-05-07 14:40 53.63421 10.00283 46 ft 4 kts 83°
2026-05-07 14:40 53.63417 10.00239 46 ft 4 kts 96°
2026-05-07 14:41 53.63417 10.00223 46 ft 1 kts 176°
2026-05-07 14:43 53.63408 10.00223 42 ft 3 kts 177°
2026-05-07 14:44 53.63385 10.00226 46 ft 4 kts 176°
2026-05-07 14:44 53.63352 10.00230 43 ft 6 kts 176°
2026-05-07 14:44 53.63306 10.00235 46 ft 7 kts 176°
2026-05-07 14:44 53.63253 10.00240 45 ft 8 kts 177°
2026-05-07 14:45 53.63203 10.00246 45 ft 7 kts 176°
2026-05-07 14:45 53.63155 10.00252 45 ft 7 kts 176°
2026-05-07 14:45 53.63113 10.00257 45 ft 6 kts 176°
2026-05-07 14:45 53.63071 10.00257 45 ft 7 kts 192°
2026-05-07 14:46 53.63032 10.00220 45 ft 7 kts 214°
2026-05-07 14:46 53.62994 10.00177 43 ft 6 kts 214°
2026-05-07 14:46 53.62958 10.00139 44 ft 6 kts 211°
2026-05-07 14:46 53.62923 10.00103 46 ft 9 kts 211°
2026-05-07 14:47 53.62872 10.00041 45 ft 8 kts 228°
2026-05-07 14:47 53.62849 9.99972 46 ft 6 kts 243°
2026-05-07 14:47 53.62836 9.99930 47 ft 2 kts 243°
2026-05-07 14:47 53.62826 9.99897 47 ft 5 kts 243°
2026-05-07 14:48 53.62817 9.99859 46 ft 2 kts 253°
2026-05-07 14:48 53.62815 9.99831 47 ft 4 kts 269°
2026-05-07 14:48 53.62838 9.99771 46 ft 6 kts 329°
2026-05-07 14:48 53.62843 9.99766 47 ft 0 kts 333°
2026-05-07 14:49 53.62844 9.99766 47 ft 1 kts 333°
2026-05-07 14:50 53.63081 9.99563 45 ft 74 kts 333°
2026-05-07 14:50 53.63715 9.99016 42 ft 129 kts 333°
2026-05-07 14:50 53.64648 9.98212 97 ft 166 kts 336°
2026-05-07 14:50 53.65694 9.97321 705 ft 171 kts 338°
2026-05-07 14:51 53.66761 9.96397 1360 ft 175 kts 338°
2026-05-07 14:51 53.67906 9.95419 1710 ft 196 kts 338°
2026-05-07 14:51 53.69257 9.94707 2109 ft 208 kts 359°
2026-05-07 14:51 53.70705 9.94692 2853 ft 209 kts
2026-05-07 14:52 53.72151 9.94895 3559 ft 209 kts 21°
2026-05-07 14:52 53.73377 9.96151 4260 ft 207 kts 49°